Погода в Рексеме

Великобритания     53°02′50″N   2°59′23″W
темп.,
°C
ветер,
м/с
пор.,
м/с
влажн.,
%
обл.,
%
осадки,
мм/ч
давл.,
гПа
погр.,
м
13 мая, чт
чт1301:00+7ссз3494100 0.1 1009130
04:00+6ссз2396100 0.0 100876
07:00+7ссз3596100 0.3 1008204
10:00+10с4589100 0.8 1009433
13:00+11ссв4575100 1.0 10091001
16:00+14ссв346199 0.1 10081493
19:00+10с3686100 0.8 1008280
22:00+8сз2497100 1.5 1010123
14 мая, пт
пт1401:00+8св1195100 1.8 101029
04:00+5юв009495 0.0 101010
07:00+6вюв119362 0.0 101085
10:00+10ююв338299 0.0 1011661
13:00+12юв337079 0.3 10091139
16:00+13ююв346999 0.8 10081176
19:00+11ю3688100 2.7 1006493
22:00+8ю2294100 1.3 100539
15 мая, сб
сб1501:00+6ю1295100 1.5 100432
04:00+7зюз1195100 0.1 100221
07:00+7юв1294100 0.2 1000138
10:00+8ююв4790100 0.8 1000723
13:00+8юв459198 0.8 999523
16:00+12в117581 0.8 998852
19:00+11сз128275 2.8 997271
22:00+7з359311 1.8 998122
16 мая, вс
вс1601:00+4зюз229315 1.8 99815
04:00+4юз2295100 0.0 99717
07:00+6ю2395100 0.0 997107
10:00+10ююв348396 0.0 996590
13:00+9ююв3390100 0.8 995384
16:00+10ююв2387100 0.5 994389
19:00+10ююз118883 1.1 994184
22:00+8сз239599 0.2 99574
17 мая, пн
пн1701:00+8сз2395100 0.3 99661
04:00+6сз229624 0.1 99833
07:00+7сз129693 0.3 1000111
10:00+11зсз3583100 1.4 1001949
13:00+11сз6786100 3.9 1002964
16:00+9зюз3693100 5.8 1004327
19:00+9з3791100 7.2 1004425
22:00+6зюз229224 0.4 100618